[[{"header":{"parameterUnit":"m.s-1","parameterCategory":1,"la1":30.2991,"la2":30.254,"lo1":-89.0895,"lo2":-89.0444,"dy":0.0017,"dx":0.0017,"nx":28,"ny":28,"refTime":"2024-02-07T09:00:00:Z","depth":0,"parameterNumber":2,"parameterNumberName":"U-component_of_WINDS"},"data":[0,0,0,0,0,0,0,0,0,0,0,0,0,0,0,0,0,0,0,0,0,0,0,0,0,0,0,0,0,0,0,0,0,0,0,0,0,0,0,0,0,0,0,0,0,0,0,0,0,0,0,0,0,0,0,0,0,0,-2.4184,-2.4185,0,-2.4271,-2.4272,-2.4273,-2.4266,-2.4265,-2.4263,-2.4262,-2.4356,-2.4359,-2.4363,0,0,0,0,0,0,0,0,0,0,0,0,0,-2.4014,-2.4017,-2.4183,-2.4185,-2.4186,-2.4271,-2.4273,-2.4274,-2.4266,-2.4265,-2.4263,-2.4262,-2.4355,-2.4359,-2.4363,0,0,0,0,0,0,0,0,0,0,0,0,0,-2.4094,-2.4018,-2.4183,-2.4192,-2.4194,-2.4271,-2.4273,-2.4274,-2.4267,-2.4265,-2.4263,-2.4261,-2.4353,-2.4358,-2.4364,-2.4439,0,0,-2.4381,-2.4384,0,0,0,0,0,0,0,0,-2.4089,-2.41,-2.419,-2.4192,-2.4194,-2.4256,-2.4247,-2.4329,-2.4267,-2.4239,-2.4262,-2.426,-2.4324,-2.4332,-2.4353,-2.4443,-2.4447,-2.4382,-2.4385,-2.4387,-2.4389,0,0,0,0,0,0,0,-2.4084,-2.4096,-2.4218,-2.4191,-2.4194,-2.4194,-2.4203,-2.4263,-2.4292,-2.4242,-2.4241,-2.4252,-2.4325,-2.4348,-2.4355,-2.4449,-2.4382,-2.4386,-2.439,-2.4392,-2.4607,-2.4609,0,0,0,0,0,0,-2.4075,-2.4091,-2.4216,-2.4221,-2.4135,-2.4198,-2.4208,-2.4238,-2.4291,-2.4298,-2.4253,-2.4251,-2.4339,-2.4349,-2.4359,-2.445,-2.4387,-2.4393,-2.4396,-2.4604,-2.4607,-2.461,0,0,0,0,0,0,-2.4072,-2.4087,-2.4212,-2.4156,-2.4172,-2.4203,-2.4237,-2.4241,-2.4263,-2.43,-2.4306,-2.4271,-2.4338,-2.4351,-2.4419,-2.4453,-2.4395,-2.44,-2.4602,-2.4605,-2.4609,-2.4634,0,0,0,0,0,0,-2.4067,-2.4085,-2.4113,-2.4157,-2.4175,-2.427,-2.4239,-2.4244,-2.4273,-2.427,-2.4318,-2.4324,-2.4337,-2.4411,-2.4425,-2.446,-2.4405,-2.4599,-2.4603,-2.4607,-2.463,-2.4638,-2.4644,0,0,0,0,0,-2.4061,-2.4117,-2.4114,-2.4129,-2.421,-2.4271,-2.4282,-2.4295,-2.4275,-2.4304,-2.4328,-2.4322,-2.4448,-2.4418,-2.4433,-2.4471,-2.4597,-2.4602,-2.4607,-2.4627,-2.4636,-2.4644,0,0,0,0,0,0,-2.4076,-2.4123,-2.412,-2.4191,-2.4228,-2.427,-2.4306,-2.4305,-2.4348,-2.4344,-2.436,-2.4371,-2.444,-2.4463,-2.4429,-2.4547,-2.452,-2.4528,-2.4529,-2.4539,-2.4546,-2.4538,-2.4409,0,0,0,0,0,-2.4088,-2.4133,-2.4171,-2.4231,-2.4249,-2.4275,-2.4302,-2.4309,-2.4348,-2.4363,-2.4392,-2.4431,-2.4479,-2.4511,-2.4557,-2.4634,-2.4645,-2.4668,-2.4675,-2.4681,-2.4688,-2.4731,-2.4742,-2.4627,-2.4627,-2.4627,0,0,-2.4113,-2.4143,-2.4171,-2.4235,-2.4263,-2.4311,-2.4288,-2.4339,-2.4374,-2.4372,-2.4437,-2.4461,-2.4505,-2.4578,-2.4612,-2.4599,-2.4722,-2.4688,-2.4692,-2.4696,-2.4738,-2.4749,-2.4758,-2.4631,-2.463,-2.4629,0,0,-2.4181,-2.4209,-2.4261,-2.4291,-2.4335,-2.4352,-2.4365,-2.4408,-2.4423,-2.449,-2.4489,-2.4533,-2.4615,-2.4647,-2.4674,-2.4758,-2.4755,-2.4773,-2.481,-2.4852,-2.4861,-2.487,-2.49,-2.491,-2.478,-2.478,-2.478,0,-2.4206,-2.4276,-2.4289,-2.4341,-2.4369,-2.4369,-2.4424,-2.4452,-2.4509,-2.453,-2.4515,-2.4619,-2.4649,-2.4731,-2.4751,-2.4773,-2.4789,-2.4767,-2.4859,-2.4867,-2.4875,-2.4904,-2.4915,-2.4782,-2.4782,-2.4782,-2.4782,0,-2.4305,-2.4354,-2.4392,-2.4446,-2.4479,-2.4532,-2.4555,-2.4588,-2.4593,-2.4613,-2.4682,-2.4718,-2.4772,-2.4792,-2.4798,-2.4875,-2.4866,-2.4855,-2.4827,-2.4888,-2.4915,-2.4926,-2.4785,-2.4784,-2.4784,-2.4783,0,0,-2.4383,-2.4445,-2.4459,-2.4484,-2.4534,-2.4572,-2.4627,-2.4679,-2.4707,-2.4748,-2.4794,-2.4865,-2.4855,-2.4886,-2.4896,-2.4934,-2.4999,-2.4918,-2.492,-2.4932,-2.5087,-2.5093,-2.5106,-2.4998,-2.5,-2.5002,-2.5083,0,-2.4456,-2.455,-2.4564,-2.4647,-2.4693,-2.4695,-2.4743,-2.4779,-2.48,-2.4843,-2.4867,-2.4917,-2.49,-2.4919,-2.4956,-2.4982,-2.503,-2.4977,-2.5042,-2.5044,-2.5029,-2.512,-2.5127,-2.5202,-2.5093,-2.5095,-2.5097,0,-2.4553,-2.4595,-2.4682,-2.4727,-2.4747,-2.4789,-2.4839,-2.488,-2.4923,-2.4936,-2.4971,-2.4977,-2.5036,-2.5007,-2.5088,-2.5052,-2.508,-2.5097,-2.5101,-2.5106,-2.5072,-2.5127,-2.5226,-2.5237,-2.5114,-2.5112,-2.5111,0,-2.46,-2.468,-2.4742,-2.4764,-2.4818,-2.4847,-2.4872,-2.4912,-2.4943,-2.4988,-2.5008,-2.506,-2.5088,-2.5129,-2.5149,-2.5126,-2.523,-2.5202,-2.5242,-2.5242,-2.5262,-2.526,-2.5366,-2.5282,-2.5282,-2.5282,-2.5282,0,-2.468,-2.4733,-2.4764,-2.4803,-2.4863,-2.4881,-2.4941,-2.4965,-2.5002,-2.5046,-2.5052,-2.5094,-2.512,-2.5166,-2.5183,-2.5248,-2.5261,-2.5274,-2.5277,-2.5272,-2.5271,-2.529,-2.5285,-2.5285,-2.5284,-2.5284,-2.5283,0,-2.4742,-2.4765,-2.4833,-2.4879,-2.4892,-2.4935,-2.4975,-2.5013,-2.5035,-2.5091,-2.5106,-2.5139,-2.5195,-2.522,-2.5288,-2.53,-2.5374,-2.5375,-2.5359,-2.536,-2.5398,-2.5394,-2.5518,-2.5536,-2.5442,-2.5442,-2.5443,0,-2.479,-2.4831,-2.4881,-2.4911,-2.4935,-2.4983,-2.5015,-2.5036,-2.5069,-2.5122,-2.5154,-2.521,-2.5254,-2.5343,-2.5375,-2.5428,-2.5429,-2.5469,-2.5437,-2.5431,-2.5429,-2.5426,-2.543,-2.5474,-2.5475,-2.5476,-2.5477,0,-2.4872,-2.4882,-2.4927,-2.4977,-2.5014,-2.5054,-2.5094,-2.5119,-2.5146,-2.5184,-2.5239,-2.5274,-2.5344,-2.54,-2.5455,-2.5482,-2.5485,-2.5487,-2.5499,-2.5493,-2.5482,-2.5489,-2.5374,-2.5484,-2.5483,-2.5482,-2.5482,-2.5482,-2.4929,-2.4965,-2.5007,-2.5057,-2.5089,-2.5127,-2.5165,-2.5192,-2.5238,-2.5295,-2.5306,-2.5366,-2.541,-2.5485,-2.5514,-2.5563,-2.5553,-2.557,-2.5575,-2.5578,-2.558,-2.5476,-2.5573,-2.5573,-2.5573,-2.5573,-2.5572,0,-2.5011,-2.5038,-2.5084,-2.5139,-2.518,-2.5178,-2.5223,-2.5257,-2.5309,-2.5349,-2.5394,-2.5459,-2.5514,-2.555,-2.5606,-2.5638,-2.564,-2.5652,-2.5649,-2.5655,-2.5586,-2.5569,-2.5648,-2.5648,-2.5648,-2.5648,-2.5648,-2.5648,-2.5058,-2.5121,-2.5136,-2.5215,-2.5243,-2.53,-2.5326,-2.5361,-2.5394,-2.5466,-2.5511,-2.5534,-2.5574,-2.5633,-2.5684,-2.5693,-2.5713,-2.5725,-2.5734,-2.5668,-2.566,-2.5652,-2.5637,-2.5729,-2.5729,-2.58,-2.58,-2.5801]},{"header":{"parameterUnit":"m.s-1","parameterCategory":1,"la1":30.2991,"la2":30.254,"lo1":-89.0895,"lo2":-89.0444,"dy":0.0017,"dx":0.0017,"nx":28,"ny":28,"refTime":"2024-02-07T09:00:00:Z","depth":0,"parameterNumber":3,"parameterNumberName":"V-component_of_WINDS"},"data":[0,0,0,0,0,0,0,0,0,0,0,0,0,0,0,0,0,0,0,0,0,0,0,0,0,0,0,0,0,0,0,0,0,0,0,0,0,0,0,0,0,0,0,0,0,0,0,0,0,0,0,0,0,0,0,0,0,0,2.0236,2.0236,0,2.0211,2.0211,2.021,2.0138,2.0136,2.0135,2.0133,2.0107,2.0107,2.0108,0,0,0,0,0,0,0,0,0,0,0,0,0,2.0222,2.0223,2.0236,2.0236,2.0236,2.0211,2.0211,2.021,2.0138,2.0136,2.0134,2.0133,2.0106,2.0107,2.0108,0,0,0,0,0,0,0,0,0,0,0,0,0,2.0216,2.0223,2.0236,2.0197,2.0193,2.0211,2.0211,2.021,2.0139,2.0136,2.0134,2.0132,2.0106,2.0107,2.0108,2.0162,0,0,2.0112,2.0112,0,0,0,0,0,0,0,0,2.0216,2.0216,2.0203,2.0199,2.0195,2.0175,2.0196,2.0194,2.0139,2.0159,2.0133,2.0131,2.0131,2.013,2.0131,2.0161,2.016,2.0112,2.0113,2.0113,2.0113,0,0,0,0,0,0,0,2.0217,2.0217,2.0226,2.0203,2.0198,2.018,2.0177,2.0195,2.0159,2.0157,2.0152,2.015,2.0129,2.013,2.0129,2.016,2.0112,2.0113,2.0114,2.0114,2.0236,2.0238,0,0,0,0,0,0,2.0223,2.0218,2.0227,2.0225,2.02,2.0183,2.0179,2.0184,2.0158,2.0152,2.0152,2.0147,2.0129,2.0128,2.0128,2.0192,2.0113,2.0114,2.0115,2.0233,2.0237,2.0239,0,0,0,0,0,0,2.0223,2.0225,2.0228,2.022,2.0219,2.0185,2.0192,2.0185,2.0186,2.0154,2.0148,2.016,2.0127,2.0127,2.0155,2.019,2.0115,2.0116,2.023,2.0234,2.0238,2.0319,0,0,0,0,0,0,2.0223,2.0225,2.0245,2.0221,2.022,2.0255,2.0194,2.0186,2.0188,2.0181,2.016,2.0154,2.0125,2.0154,2.0156,2.019,2.0117,2.0227,2.0232,2.0237,2.0313,2.0325,2.0335,0,0,0,0,0,2.0223,2.0268,2.0246,2.0248,2.0244,2.0257,2.0257,2.0223,2.0191,2.0211,2.0191,2.0155,2.0186,2.0157,2.0159,2.0194,2.0225,2.0231,2.0236,2.0308,2.0322,2.0335,0,0,0,0,0,0,2.0296,2.0264,2.024,2.0279,2.0272,2.0245,2.0269,2.0239,2.024,2.0234,2.0191,2.0187,2.0222,2.021,2.018,2.0247,2.0199,2.0206,2.0253,2.0267,2.0278,2.028,2.0117,0,0,0,0,0,2.0316,2.033,2.0301,2.0338,2.0336,2.0304,2.0308,2.0283,2.0273,2.027,2.0252,2.0244,2.0252,2.0259,2.0264,2.0311,2.0306,2.0336,2.0347,2.0356,2.0363,2.0389,2.0402,2.0258,2.0258,2.0258,0,0,2.0359,2.0343,2.0354,2.0353,2.0344,2.036,2.0302,2.0319,2.0331,2.0272,2.0299,2.0286,2.0274,2.0313,2.0329,2.0305,2.0401,2.0363,2.0371,2.0372,2.0396,2.041,2.0422,2.0262,2.0262,2.0261,0,0,2.0445,2.0434,2.0465,2.0458,2.0446,2.0425,2.0433,2.0411,2.0401,2.0427,2.0384,2.0397,2.0411,2.0405,2.0404,2.0491,2.0458,2.0494,2.0553,2.0579,2.059,2.06,2.0633,2.0645,2.05,2.05,2.0501,0,2.05,2.0521,2.0485,2.0506,2.0508,2.0456,2.0488,2.0483,2.0474,2.0476,2.0449,2.0467,2.0455,2.0493,2.0515,2.0515,2.0523,2.0497,2.0591,2.0601,2.061,2.0641,2.0653,2.0505,2.0504,2.0504,2.0504,0,2.059,2.0606,2.0632,2.0626,2.063,2.0657,2.0624,2.0633,2.0608,2.059,2.0618,2.0602,2.0605,2.0612,2.0587,2.0647,2.0632,2.0599,2.0551,2.0629,2.0657,2.0668,2.0512,2.051,2.0509,2.0507,0,0,2.0722,2.0696,2.0706,2.0704,2.0688,2.07,2.0724,2.0728,2.0737,2.0732,2.0753,2.0767,2.0737,2.0736,2.071,2.0733,2.0805,2.0696,2.0695,2.0719,2.0873,2.09,2.0914,2.0783,2.0785,2.0786,2.0874,0,2.0805,2.0846,2.0815,2.0862,2.0877,2.083,2.0851,2.0845,2.0828,2.0839,2.0821,2.0833,2.079,2.079,2.081,2.0792,2.0836,2.0785,2.0803,2.0804,2.0809,2.0928,2.0956,2.104,2.0885,2.0887,2.0888,0,2.0907,2.0909,2.0959,2.0942,2.0947,2.0967,2.0969,2.0979,2.0971,2.0958,2.0958,2.0926,2.095,2.0903,2.0936,2.0903,2.0908,2.09,2.0903,2.0904,2.0852,2.0935,2.1065,2.1079,2.0905,2.0904,2.0902,0,2.1001,2.1016,2.1048,2.1047,2.1027,2.1043,2.1035,2.1025,2.1029,2.1031,2.1034,2.1038,2.104,2.1044,2.1015,2.0983,2.1053,2.1002,2.1044,2.1045,2.1062,2.1062,2.1197,2.1063,2.1063,2.1062,2.1062,0,2.1099,2.1131,2.109,2.111,2.1145,2.1109,2.1145,2.1132,2.1124,2.1141,2.1099,2.1116,2.1075,2.1089,2.1066,2.1098,2.1099,2.109,2.1084,2.1095,2.1096,2.1099,2.1093,2.1066,2.1065,2.1064,2.1064,0,2.121,2.1183,2.1215,2.1195,2.119,2.1218,2.12,2.1218,2.12,2.1222,2.1225,2.1196,2.121,2.1181,2.1189,2.1174,2.1221,2.1204,2.1224,2.122,2.1264,2.1262,2.1408,2.1426,2.1278,2.128,2.1281,0,2.1275,2.1299,2.1282,2.1291,2.1286,2.13,2.1305,2.1271,2.1278,2.1271,2.1291,2.1301,2.1307,2.1331,2.1311,2.1318,2.1303,2.1353,2.1303,2.1314,2.1306,2.1306,2.1309,2.1364,2.1366,2.1367,2.1369,0,2.1394,2.138,2.1389,2.1395,2.1402,2.1405,2.1404,2.1414,2.1377,2.1387,2.1401,2.1406,2.1416,2.1427,2.143,2.1422,2.1391,2.1384,2.1395,2.1407,2.1419,2.1415,2.1255,2.1381,2.138,2.1379,2.1379,2.1378,2.1485,2.1505,2.1497,2.1509,2.1506,2.1506,2.1523,2.1507,2.1518,2.1524,2.1503,2.1522,2.1515,2.1515,2.1511,2.1526,2.1503,2.1518,2.1522,2.1527,2.1535,2.1415,2.1526,2.1526,2.1525,2.1525,2.1525,0,2.1604,2.1597,2.1608,2.161,2.162,2.1588,2.1587,2.1597,2.1615,2.1611,2.1618,2.1635,2.1646,2.1628,2.1636,2.1652,2.1637,2.1655,2.1655,2.1654,2.1554,2.1545,2.1667,2.1667,2.1667,2.1667,2.1667,2.1667,2.1667,2.1701,2.1686,2.1718,2.171,2.1729,2.1731,2.1732,2.1729,2.175,2.1759,2.1747,2.1738,2.1745,2.1754,2.1748,2.1754,2.1778,2.1768,2.1675,2.1661,2.1648,2.1639,2.1779,2.1779,2.1867,2.1868,2.1868]}]]